This is the latest recevied weather packets stored in our database for station/object AI5BL. If no packets are shown the sender has not sent any weather packets the latest 10 day(s).
| Time | Temp. | Humidity | Pressure | Rain* | Wind** | Luminosity | Snow |
|---|---|---|---|---|---|---|---|
| 1788537668 | 28.89° C | 82% | 1018.2 hPa | 0 mm | - | 187 W/m² | - |
| 1788537368 | 28.89° C | 84% | 1018.4 hPa | 0 mm | - | 221 W/m² | - |
| 1788537062 | 29.44° C | 84% | 1018.2 hPa | 0 mm | - | 312 W/m² | - |
| 1788536756 | 28.33° C | 89% | 1018.3 hPa | 0 mm | - | 352 W/m² | - |
| 1788536450 | 27.78° C | 87% | 1018.3 hPa | 0 mm | - | 293 W/m² | - |
| 1788536150 | 27.78° C | 86% | 1018.5 hPa | 0 mm | - | 160 W/m² | - |
| 1788535847 | 28.33° C | 87% | 1018.5 hPa | 0 mm | - | 147 W/m² | - |
| 1788535542 | 27.78° C | 88% | 1018.3 hPa | 0 mm | - | 175 W/m² | - |
| 1788535237 | 28.33° C | 86% | 1018.2 hPa | 0 mm | - | 214 W/m² | - |
| 1788534933 | 28.33° C | 85% | 1018.4 hPa | 0 mm | - | 292 W/m² | - |
| 1788534632 | 28.33° C | 88% | 1018.3 hPa | 0 mm | - | 120 W/m² | - |
| 1788534332 | 27.78° C | 86% | 1018.1 hPa | 0 mm | - | 109 W/m² | - |
| 1788534027 | 28.33° C | 84% | 1018.4 hPa | 0 mm | - | 76 W/m² | - |
| 1788533751 | 28.33° C | 84% | 1018.1 hPa | 0 mm | - | 119 W/m² | - |
| 1788533416 | 28.33° C | 85% | 1018.2 hPa | 0 mm | - | 124 W/m² | - |
| 1788533112 | 28.33° C | 85% | 1018.2 hPa | 0 mm | - | 137 W/m² | - |
| 1788532808 | 27.78° C | 88% | 1018 hPa | 0 mm | - | 157 W/m² | - |
| 1788532504 | 27.22° C | 90% | 1017.9 hPa | 0 mm | - | 172 W/m² | - |
| 1788532201 | 27.22° C | 91% | 1017.9 hPa | 0 mm | - | 170 W/m² | - |
| 1788531897 | 26.67° C | 92% | 1018 hPa | 0 mm | - | 91 W/m² | - |
| 1788531596 | 26.67° C | 93% | 1017.8 hPa | 0 mm | - | 93 W/m² | - |
| 1788531291 | 26.67° C | 93% | 1018 hPa | 0 mm | - | 60 W/m² | - |
| 1788530988 | 26.67° C | 92% | 1018 hPa | 0 mm | - | 55 W/m² | - |
| 1788530687 | 26.67° C | 93% | 1018 hPa | 0 mm | - | 52 W/m² | - |
| 1788530386 | 26.67° C | 94% | 1018 hPa | 0 mm | - | 63 W/m² | - |
* Rain latest hour (hover to see other rain measurements)
** Current wind speed in m/s (hover to see current wind gust speed)